Wetbulb
76.07 77.01 76.63 73.65 64.71 62.99 58.05 60.43 65.50 62.94 63.22 65.45 66.10 65.24 64.07 64.44 62.77 60.63 73.23 74.30 74.38 74.95 76.62 77.13 77.41 77.40 77.60 77.36 77.30 77.24 76.97 77.09 77.11 76.02 76.49 76.69 76.58 76.69 76.72 77.21 76.99 77.02 76.45 76.14 76.09 75.98 76.00 75.75 75.73
78.35 77.41 76.15 72.18 60.39 55.49 57.54 61.69 62.45 63.97 65.85 67.42 66.28 65.83 64.81 63.21 67.35 69.68 71.26 74.01 74.26 74.67 76.38 77.26 77.32 76.84 76.81 76.53 76.78 76.62 76.80 76.77 76.82 76.74 76.53 76.61 76.89 76.50 76.37 76.64 76.72 76.69 76.17 75.87 75.78 75.51 75.14 75.28 75.37
78.03 77.32 72.02 64.47 59.27 56.06 57.73 62.92 62.54 66.30 67.96 66.24 65.66 67.79 66.73 63.02 68.82 69.82 73.88 74.22 74.97 74.79 76.06 77.14 77.12 77.38 77.10 76.89 76.94 76.90 76.86 76.97 76.96 76.61 76.72 76.39 76.37 76.37 76.66 76.78 76.14 75.95 75.95 75.81 75.75 75.33 74.83 74.83 74.72
75.76 75.75 72.78 61.89 57.98 61.94 60.79 64.74 65.47 65.68 67.96 68.65 68.39 65.08 68.73 70.37 68.13 71.78 73.60 74.44 74.61 74.73 75.89 76.53 77.06 77.21 76.64 75.94 77.25 75.48 75.89 75.84 75.89 76.12 76.06 75.78 76.60 76.03 76.36 76.47 76.44 75.97 75.56 75.40 75.39 75.13 74.77 74.50 74.50
76.55 73.13 64.25 60.65 59.77 62.32 65.17 66.92 66.37 65.07 66.47 65.92 67.49 63.83 64.74 70.02 71.32 72.68 73.47 74.39 74.25 74.93 76.47 76.42 77.17 76.91 76.13 76.15 77.17 75.84 76.95 77.47 76.91 76.26 76.26 76.50 76.34 76.41 76.22 75.72 75.37 75.01 74.84 74.67 74.78 75.05 75.24 75.26 75.41
70.58 69.32 59.63 57.62 60.28 63.60 65.81 67.57 66.24 66.06 66.42 67.78 65.45 65.64 66.04 69.83 71.15 72.90 74.44 73.91 73.75 74.99 76.23 76.56 76.43 75.31 74.84 76.59 77.02 75.73 76.72 77.10 77.06 77.10 76.74 76.79 75.86 74.98 74.73 74.20 73.86 74.05 74.19 74.25 74.35 74.72 75.09 75.61 75.95
68.46 64.28 60.11 57.92 60.28 61.97 65.10 68.02 66.00 66.43 66.13 66.65 68.17 63.40 65.71 68.28 70.59 73.73 72.84 74.91 74.89 75.32 75.41 75.95 74.05 75.79 76.44 76.82 77.24 77.43 77.39 76.20 75.51 75.59 75.12 74.95 74.81 74.86 74.80 74.78 74.51 75.01 75.53 75.39 75.08 75.59 75.98 76.17 76.45
68.29 66.04 60.71 60.83 59.88 58.45 66.05 67.33 68.70 66.45 65.64 70.99 71.71 66.18 64.54 69.03 71.87 73.23 73.68 73.66 74.64 75.11 75.13 75.54 75.48 76.72 76.84 77.83 76.83 76.16 75.73 75.76 76.14 76.01 75.98 76.67 76.62 76.90 76.72 76.75 76.34 76.14 76.34 76.23 76.51 76.87 76.87 77.11 77.59
69.96 62.74 58.62 59.50 60.23 61.27 66.77 66.12 68.72 71.27 68.68 68.97 70.01 69.52 71.27 71.04 72.48 71.42 72.74 71.98 71.87 75.02 74.56 75.23 75.85 75.78 77.28 76.40 75.51 75.11 75.37 75.81 76.31 76.37 76.72 76.58 76.34 77.29 77.49 77.36 75.95 75.86 75.89 75.89 75.11 76.44 77.16 77.46 77.95
65.53 60.97 60.01 62.83 64.12 63.97 65.59 66.59 67.39 67.87 67.68 67.82 68.83 71.03 71.18 70.66 69.91 69.52 70.24 70.04 71.62 72.82 73.64 75.77 73.50 73.36 75.23 73.53 76.45 76.67 76.93 76.94 77.70 78.39 78.85 77.61 77.34 77.68 77.52 77.37 76.98 77.01 76.79 77.20 76.65 76.61 77.06 77.79 75.66
64.30 60.23 63.23 64.37 65.84 66.36 65.87 65.92 68.02 66.51 65.96 68.34 67.82 68.95 70.13 69.91 69.56 68.92 70.14 71.00 72.00 73.21 73.92 74.01 74.09 73.39 72.54 74.04 75.30 76.65 76.27 77.29 77.46 78.75 78.69 78.08 78.16 77.89 76.24 76.14 77.17 77.36 76.92 76.94 76.72 76.58 75.73 76.55 75.02
61.06 62.08 63.76 64.79 65.36 65.00 65.22 67.28 66.21 67.31 67.89 70.63 70.97 70.64 70.03 68.48 69.51 68.19 70.04 71.41 72.05 72.70 73.58 73.95 74.44 74.54 74.24 74.37 75.11 75.75 76.80 76.46 75.46 77.34 79.75 78.03 76.87 76.37 77.21 75.73 76.70 76.33 77.29 76.30 78.52 77.13 77.68 76.99 77.48
61.86 62.60 64.52 65.91 66.15 65.89 66.32 64.99 65.72 67.38 70.22 71.40 71.43 70.36 69.51 68.50 69.07 69.87 70.28 72.41 72.40 72.52 73.56 73.15 74.01 74.87 76.14 77.31 76.67 77.86 77.90 76.73 76.65 77.53 78.10 77.34 76.48 76.84 75.91 77.19 76.07 77.19 76.75 75.75 77.30 77.79 76.31 75.80 75.75
62.77 63.81 64.42 65.75 66.29 67.00 64.87 65.44 67.07 68.43 70.32 70.62 70.21 69.68 69.85 69.15 69.03 70.76 68.92 71.12 72.07 73.26 72.60 72.73 73.43 76.28 77.01 78.02 77.74 77.01 79.24 77.16 76.69 75.52 77.38 78.65 77.67 77.86 77.31 75.92 75.23 75.03 75.84 76.54 76.32 77.19 75.91 75.48 74.19
64.78 61.87 63.86 65.06 66.56 66.48 67.57 63.96 64.82 68.84 69.98 69.23 69.26 69.68 69.72 69.46 70.34 70.77 71.25 71.60 72.63 73.37 72.58 72.18 74.10 76.40 77.16 77.76 77.41 77.44 76.74 76.03 75.99 76.34 77.96 78.08 78.55 78.55 80.21 76.51 75.74 75.88 77.52 76.70 76.52 76.76 75.11 72.99 72.60
62.99 62.50 58.94 63.41 65.84 66.63 66.18 57.79 65.58 68.50 68.61 67.70 68.38 69.29 68.86 69.29 71.39 72.76 72.83 72.38 72.87 73.39 72.38 73.06 75.14 76.15 76.89 77.00 77.04 76.52 76.60 76.81 76.65 76.13 77.19 77.62 78.25 78.50 80.74 76.65 75.80 78.68 77.88 76.85 76.05 75.92 75.43 75.96 75.67
61.53 57.40 59.75 58.46 64.75 66.74 64.83 60.95 66.08 68.48 68.21 67.59 67.65 69.08 68.97 69.01 70.34 72.14 73.10 73.06 72.84 74.06 73.25 73.94 76.07 75.77 76.43 76.90 76.72 77.62 78.45 76.68 76.63 77.34 76.18 77.81 77.81 77.83 78.27 76.60 77.23 79.56 77.38 76.58 76.29 75.89 77.06 75.74 75.43
56.51 57.22 57.55 57.15 63.20 63.21 63.28 63.18 66.72 67.65 67.32 67.16 67.98 68.69 69.22 69.48 69.29 71.01 72.83 73.30 71.98 74.25 74.33 74.95 75.72 76.84 77.39 76.70 77.20 76.56 76.58 75.94 76.45 76.87 76.47 77.26 77.46 77.64 78.32 76.94 78.38 79.09 77.08 77.04 76.86 77.77 77.01 76.34 74.95
58.87 58.79 58.18 57.96 62.59 61.06 61.75 61.94 66.48 67.63 67.30 66.54 67.62 68.19 68.81 69.73 71.58 71.23 72.42 73.02 72.81 73.58 73.78 74.37 75.45 77.48 76.84 75.64 75.00 74.95 74.35 74.87 75.38 76.22 75.96 76.90 76.97 77.63 77.78 76.94 77.80 77.16 77.11 77.79 78.28 76.94 75.10 75.01 76.09
56.98 58.55 57.93 60.13 61.47 60.49 60.25 61.07 64.16 67.83 67.48 67.62 66.97 68.10 68.72 69.67 69.40 70.46 72.10 72.56 72.65 72.81 73.94 73.75 75.17 76.73 76.88 75.83 76.35 75.88 75.64 75.41 75.51 75.45 76.26 76.89 76.86 76.89 76.63 78.63 78.27 78.57 76.82 77.60 77.61 78.05 75.04 75.76 76.41
57.62 57.23 57.59 57.95 59.68 62.10 60.11 58.64 60.34 66.72 68.37 67.76 68.15 68.53 69.28 69.56 69.52 70.17 71.57 72.11 72.42 72.54 73.39 73.60 75.32 76.42 76.80 78.09 76.23 76.46 76.62 75.59 73.71 73.65 74.56 76.75 76.37 76.66 77.58 78.06 78.59 78.85 78.81 75.61 77.33 77.54 76.99 73.33 73.03
55.16 59.19 58.36 57.10 57.31 54.72 60.37 53.75 59.35 63.69 66.28 66.78 66.53 67.40 68.42 69.50 70.86 71.45 71.95 71.76 72.31 72.73 73.42 74.36 75.92 76.48 76.23 77.32 77.64 78.56 73.72 72.55 72.97 74.46 75.28 75.51 76.52 76.65 77.35 77.56 77.91 78.42 77.31 77.87 78.05 77.32 76.55 74.94 70.92
56.44 59.32 58.52 57.87 57.25 57.39 57.84 55.48 57.00 63.97 63.98 65.76 65.89 66.77 67.74 69.05 70.48 71.25 71.88 72.85 73.46 73.54 73.24 73.36 76.51 76.56 76.98 77.28 77.15 75.00 74.77 74.25 74.10 74.05 77.13 77.45 78.02 77.77 76.71 77.31 78.02 77.92 77.19 77.91 78.34 76.90 76.05 74.66 71.47
59.26 58.12 58.44 58.16 57.21 52.34 55.82 55.30 55.79 60.99 63.50 66.17 67.11 66.98 67.22 67.89 69.76 71.29 72.63 73.25 73.31 74.15 73.99 73.08 76.04 77.14 76.89 75.83 75.49 75.88 76.46 75.97 74.32 74.97 73.95 74.48 75.39 76.36 77.98 77.87 78.25 78.37 78.31 78.59 77.18 76.86 75.50 74.05 72.28
57.40 55.92 51.44 50.57 50.92 50.64 57.02 55.19 56.59 58.64 63.36 65.93 67.28 67.63 67.76 67.53 68.65 70.43 71.50 71.98 72.73 73.16 73.57 73.16 75.13 75.77 75.45 74.54 74.59 75.13 75.60 76.30 76.31 76.28 75.27 76.57 74.65 74.78 79.01 78.57 79.39 78.41 78.96 78.04 77.57 75.63 74.53 72.58 70.15
55.20 56.00 51.72 47.80 49.31 51.90 58.11 53.89 56.78 61.53 64.29 65.89 68.72 68.92 69.04 67.59 67.95 69.92 71.47 72.17 72.51 72.66 73.10 73.10 74.98 76.02 75.89 75.72 76.52 77.29 77.42 74.59 74.97 77.07 75.53 74.93 74.94 75.55 78.80 78.31 78.25 77.90 77.06 76.94 76.53 74.36 72.86 71.73 69.39
54.64 54.58 57.76 53.75 54.91 53.68 51.02 58.95 59.94 62.47 62.21 62.77 64.10 68.73 68.65 68.25 67.14 69.18 71.14 72.45 72.97 73.03 73.27 73.65 75.26 76.20 76.02 76.01 77.18 77.67 77.35 77.17 76.48 79.41 79.22 76.38 78.91 76.52 77.46 78.18 77.80 76.79 77.10 75.81 74.84 73.15 72.12 70.44 68.11
55.21 58.68 53.05 54.22 49.59 46.07 51.79 54.09 54.19 59.45 60.82 63.86 63.98 67.56 68.80 69.18 67.22 68.50 70.25 71.88 73.00 73.63 74.12 74.63 74.95 75.35 75.98 76.04 76.31 76.41 76.90 77.47 77.79 77.88 77.70 78.37 78.12 77.82 78.12 77.74 77.18 76.39 75.86 74.65 73.87 72.44 70.64 68.69 66.28
53.07 53.67 55.88 55.61 53.90 49.52 48.35 53.39 60.66 61.52 62.26 62.19 65.25 68.13 68.83 68.90 67.43 68.00 69.83 71.78 72.81 73.46 73.87 74.34 74.51 75.06 75.86 77.61 77.51 78.05 76.66 77.37 77.25 76.93 77.18 77.56 78.01 78.40 78.26 78.32 77.26 75.73 74.67 73.76 73.08 71.32 68.72 66.32 66.03
55.20 54.63 55.78 52.38 52.89 54.35 53.24 53.58 61.77 62.70 62.95 64.35 66.33 68.87 69.17 69.11 68.07 68.41 69.60 70.96 71.90 72.66 73.30 73.91 74.73 75.29 77.12 78.44 79.07 77.33 76.62 77.29 77.00 77.28 77.48 77.90 77.83 78.62 78.34 78.01 76.78 75.03 74.32 72.94 71.90 69.74 66.70 65.40 64.98
MSLP
1008.28 1007.74 1007.06 1006.59 1006.32 1005.72 1005.40 1006.66 1006.45 1007.12 1007.77 1008.52 1008.79 1008.51 1009.76 1010.84 1010.91 1011.35 1011.78 1012.01 1012.33 1012.79 1013.86 1014.37 1014.81 1014.87 1014.96 1015.01 1015.07 1015.13 1015.25 1015.35 1015.48 1015.56 1015.65 1015.64 1015.64 1015.82 1015.80 1015.73 1015.78 1015.79 1015.81 1015.87 1015.86 1015.88 1015.86 1015.84 1015.82
1006.14 1006.02 1005.83 1005.15 1005.18 1005.29 1005.88 1006.55 1006.55 1007.09 1007.91 1008.24 1008.94 1009.53 1009.79 1011.09 1011.47 1011.40 1011.85 1012.74 1012.80 1013.00 1013.44 1014.31 1015.14 1015.15 1015.22 1015.36 1015.41 1015.52 1015.64 1015.68 1015.74 1015.80 1015.82 1015.87 1015.92 1015.93 1016.02 1016.07 1016.04 1016.05 1016.03 1016.07 1016.04 1016.04 1016.02 1015.96 1015.86
1006.57 1005.50 1004.82 1004.31 1004.39 1004.10 1005.11 1005.79 1006.50 1006.68 1007.52 1008.21 1008.96 1009.71 1010.24 1012.11 1011.80 1011.71 1012.36 1013.32 1013.28 1013.49 1013.80 1014.96 1015.26 1015.37 1015.53 1015.71 1015.70 1015.83 1015.92 1015.96 1015.88 1015.98 1015.98 1016.04 1016.12 1016.15 1016.19 1016.23 1016.23 1016.24 1016.20 1016.22 1016.14 1016.06 1016.05 1015.98 1015.92
1005.23 1004.26 1003.62 1003.47 1002.82 1003.71 1005.20 1004.63 1005.82 1006.55 1007.13 1007.90 1008.57 1010.19 1011.99 1012.21 1013.14 1012.70 1013.21 1012.86 1012.86 1013.28 1013.85 1015.22 1015.50 1015.57 1015.74 1015.84 1015.92 1016.05 1016.07 1016.08 1016.08 1016.11 1016.14 1016.18 1016.28 1016.39 1016.43 1016.42 1016.43 1016.39 1016.33 1016.32 1016.18 1016.09 1016.05 1016.02 1015.89
1004.06 1002.81 1002.26 1001.62 1002.37 1002.69 1003.66 1004.15 1005.02 1005.91 1006.69 1008.19 1009.08 1010.86 1012.51 1013.37 1013.72 1013.44 1013.13 1012.73 1013.43 1013.63 1014.18 1015.22 1015.74 1015.88 1015.97 1016.13 1016.18 1016.25 1016.21 1016.21 1016.27 1016.28 1016.34 1016.43 1016.47 1016.48 1016.45 1016.49 1016.49 1016.45 1016.43 1016.36 1016.31 1016.12 1016.04 1015.97 1015.86
1002.48 1002.24 1002.29 1001.61 1001.53 1002.18 1002.92 1003.67 1004.85 1005.40 1006.60 1007.77 1009.46 1010.77 1012.95 1013.89 1013.61 1013.16 1012.67 1012.70 1012.43 1013.57 1014.73 1015.11 1015.95 1016.06 1016.14 1016.29 1016.31 1016.43 1016.50 1016.46 1016.49 1016.51 1016.52 1016.52 1016.54 1016.51 1016.51 1016.57 1016.51 1016.44 1016.41 1016.40 1016.34 1016.20 1016.09 1015.95 1015.80
1001.68 1000.19 1000.57 1001.86 1001.00 1001.71 1002.36 1003.19 1004.12 1004.89 1006.02 1006.57 1008.87 1010.21 1012.99 1013.80 1013.96 1013.16 1014.04 1013.74 1012.74 1014.24 1014.39 1014.91 1015.52 1015.99 1016.25 1016.37 1016.44 1016.60 1016.65 1016.65 1016.67 1016.72 1016.64 1016.46 1016.30 1016.22 1016.31 1016.37 1016.34 1016.31 1016.15 1016.09 1016.04 1015.95 1015.87 1015.78 1015.70
1001.39 1000.19 999.93 1000.19 1001.56 1002.51 1002.28 1002.89 1004.15 1005.37 1006.25 1006.36 1006.92 1008.85 1011.29 1012.61 1013.50 1013.27 1014.07 1014.27 1014.05 1014.41 1014.62 1014.61 1015.22 1015.11 1015.42 1015.87 1016.60 1016.72 1016.75 1016.70 1016.68 1016.63 1016.46 1016.22 1016.05 1015.78 1015.76 1016.00 1016.16 1016.00 1015.93 1015.88 1015.82 1015.69 1015.54 1015.40 1015.20
1000.95 1000.09 999.70 999.86 1001.48 1002.22 1002.05 1002.80 1004.10 1004.92 1005.87 1006.33 1006.87 1007.78 1009.35 1012.03 1012.47 1013.68 1013.18 1014.04 1014.83 1013.82 1014.49 1014.84 1014.73 1015.28 1015.07 1015.51 1016.33 1016.66 1016.60 1016.42 1016.40 1016.43 1015.95 1015.70 1015.58 1015.05 1015.14 1015.54 1015.74 1015.76 1015.70 1015.60 1015.55 1015.49 1015.17 1014.83 1014.66
1000.01 998.94 999.07 999.57 1000.04 1000.76 1001.74 1002.39 1004.14 1004.65 1005.77 1006.65 1007.16 1008.22 1009.94 1011.36 1012.27 1012.60 1013.64 1013.65 1014.18 1013.57 1013.75 1013.75 1014.23 1015.01 1015.15 1014.87 1015.78 1015.53 1015.46 1015.79 1015.86 1015.73 1015.55 1014.84 1014.83 1014.89 1014.66 1014.95 1015.19 1015.23 1015.06 1015.13 1015.14 1014.85 1014.61 1014.30 1013.64
999.11 998.73 999.03 999.50 1000.22 1000.68 1001.63 1002.81 1003.57 1004.12 1004.92 1006.11 1007.30 1008.59 1009.84 1011.18 1011.76 1013.03 1012.81 1012.64 1012.79 1013.02 1013.09 1013.69 1014.16 1014.51 1014.33 1015.01 1015.00 1015.09 1015.33 1015.25 1015.47 1015.86 1015.57 1015.47 1015.00 1014.56 1014.89 1014.70 1014.84 1014.37 1014.56 1014.46 1014.55 1014.36 1013.89 1013.60 1013.04
998.92 999.36 999.29 999.98 1000.62 1001.13 1001.46 1002.56 1003.09 1003.91 1004.36 1006.12 1007.49 1008.84 1009.94 1011.23 1011.55 1012.04 1011.99 1012.20 1012.44 1012.78 1013.08 1013.64 1014.32 1014.71 1014.72 1015.11 1014.53 1014.92 1014.94 1014.84 1015.05 1015.61 1015.43 1015.34 1015.19 1014.81 1014.59 1014.84 1014.60 1014.54 1014.07 1014.10 1014.35 1014.12 1013.92 1013.64 1013.38
998.56 999.35 999.71 1000.34 1000.95 1001.40 1002.18 1002.57 1003.39 1004.43 1005.66 1006.59 1007.81 1008.94 1009.79 1010.79 1011.17 1011.43 1012.43 1011.85 1012.36 1012.77 1013.31 1013.82 1014.77 1015.16 1015.28 1015.11 1015.08 1015.28 1015.14 1015.00 1015.09 1015.30 1015.78 1015.43 1015.21 1015.44 1014.78 1014.83 1014.39 1014.60 1014.05 1013.85 1013.99 1014.12 1013.60 1013.25 1012.82
999.13 999.24 999.84 1000.34 1001.21 1001.83 1001.83 1003.06 1003.62 1005.18 1005.82 1006.78 1008.13 1008.70 1009.32 1009.92 1011.23 1011.76 1012.46 1012.15 1012.21 1012.85 1013.50 1014.15 1014.85 1015.29 1015.39 1015.50 1015.70 1015.45 1015.15 1015.41 1014.87 1015.19 1015.76 1015.73 1015.47 1015.54 1014.47 1014.30 1014.01 1014.12 1014.51 1014.22 1014.23 1014.34 1013.88 1013.47 1012.84
998.90 999.29 999.84 1000.09 1000.74 1001.04 1001.58 1002.75 1003.13 1005.27 1005.82 1006.97 1007.94 1008.49 1008.92 1009.44 1010.41 1010.84 1011.59 1012.40 1012.46 1012.75 1013.35 1014.16 1014.66 1014.94 1015.50 1015.76 1015.81 1015.31 1015.46 1014.87 1014.98 1015.35 1016.02 1016.01 1015.76 1015.40 1014.95 1014.70 1014.45 1014.19 1014.01 1013.99 1014.01 1013.63 1013.16 1013.10 1012.77
999.09 998.79 998.65 999.65 1000.25 1000.37 1001.33 1003.01 1003.90 1005.46 1006.29 1007.35 1007.98 1008.16 1008.75 1009.50 1009.66 1010.09 1010.83 1011.76 1012.52 1012.72 1013.27 1014.10 1014.02 1014.72 1015.37 1015.67 1015.77 1015.23 1015.20 1014.92 1015.00 1014.96 1015.25 1015.91 1015.82 1015.72 1014.86 1014.56 1014.87 1014.96 1014.44 1013.86 1013.75 1013.54 1013.41 1013.13 1012.87
998.56 997.84 999.48 1002.42 1000.06 999.82 1000.69 1001.62 1003.58 1005.27 1006.32 1007.27 1008.29 1007.96 1008.45 1009.38 1009.70 1010.00 1010.64 1011.34 1012.54 1012.51 1013.35 1014.00 1014.06 1014.63 1015.26 1015.73 1015.53 1015.48 1015.79 1015.36 1015.01 1014.84 1014.86 1015.92 1015.88 1015.87 1015.41 1014.85 1015.02 1014.79 1014.23 1014.33 1014.23 1014.16 1013.85 1013.22 1012.92
997.73 997.23 999.05 998.22 999.04 999.45 999.63 1000.42 1002.81 1004.55 1005.77 1006.86 1007.68 1007.82 1007.99 1008.58 1009.37 1010.05 1010.34 1010.90 1011.96 1012.48 1013.40 1013.99 1014.36 1014.60 1015.22 1015.44 1015.51 1015.33 1015.19 1015.23 1015.09 1015.05 1015.23 1015.97 1015.77 1015.93 1015.41 1015.20 1015.12 1015.16 1014.84 1014.48 1014.97 1014.78 1014.13 1013.58 1013.24
999.20 998.68 996.81 996.68 997.40 998.55 998.59 999.25 1000.93 1003.21 1004.49 1005.84 1006.66 1007.54 1007.67 1007.93 1008.57 1009.81 1010.01 1010.59 1011.29 1012.18 1013.10 1013.86 1014.34 1014.72 1015.09 1015.25 1015.24 1015.08 1014.94 1014.92 1014.86 1015.05 1015.70 1015.94 1015.91 1015.91 1015.59 1014.86 1014.89 1014.85 1014.93 1015.41 1015.48 1015.00 1014.58 1013.96 1014.11
1000.43 998.04 997.03 996.61 996.99 998.02 997.92 997.83 998.67 1000.96 1002.52 1003.49 1005.18 1006.14 1006.86 1007.50 1008.21 1009.39 1009.70 1010.30 1010.89 1011.83 1012.74 1013.60 1014.16 1014.72 1015.09 1015.08 1015.12 1014.82 1014.80 1014.70 1014.85 1015.07 1015.74 1015.77 1015.89 1016.00 1015.55 1015.73 1015.14 1015.46 1015.12 1015.31 1015.46 1015.35 1015.16 1014.44 1014.54
997.27 996.76 996.38 996.78 997.30 997.57 997.54 997.23 997.59 998.67 1000.75 1001.73 1003.04 1004.63 1005.74 1006.24 1007.25 1008.62 1009.26 1009.80 1010.48 1011.23 1012.23 1013.13 1013.91 1014.45 1014.88 1014.75 1015.16 1015.60 1015.65 1015.70 1015.42 1015.33 1015.41 1015.71 1015.83 1015.90 1015.88 1015.73 1015.67 1015.69 1015.40 1015.06 1015.46 1015.56 1015.53 1014.84 1014.08
996.17 996.46 996.25 996.31 996.45 996.14 996.90 995.80 996.28 996.96 999.05 1000.31 1001.39 1002.57 1003.91 1004.85 1005.86 1007.59 1008.27 1009.23 1009.80 1010.65 1011.68 1012.60 1013.56 1014.14 1014.61 1014.90 1014.74 1015.13 1014.98 1014.72 1014.52 1014.93 1015.13 1015.47 1015.70 1015.81 1015.53 1015.74 1015.69 1015.72 1015.59 1015.63 1015.41 1015.72 1015.72 1015.51 1014.53
995.78 995.90 995.84 996.48 996.39 996.07 996.30 995.37 994.49 995.77 997.40 998.68 999.89 1001.01 1002.23 1003.52 1004.60 1005.72 1006.97 1008.16 1009.09 1010.05 1010.89 1011.99 1013.05 1013.80 1014.16 1014.69 1014.96 1015.00 1015.28 1014.61 1014.85 1014.94 1015.32 1015.71 1015.75 1015.64 1015.42 1015.66 1015.76 1015.79 1015.52 1015.78 1016.05 1016.11 1016.12 1015.49 1015.38
996.03 995.81 995.69 996.21 996.09 995.29 995.03 994.78 993.52 993.76 995.03 996.67 998.33 999.65 1000.90 1002.14 1003.51 1004.68 1005.98 1007.36 1008.51 1009.36 1010.22 1011.21 1012.32 1013.24 1013.91 1014.30 1014.80 1015.07 1014.87 1015.04 1014.63 1014.91 1014.99 1014.92 1014.68 1014.80 1015.04 1015.58 1015.70 1015.83 1015.92 1015.90 1016.23 1016.32 1016.45 1016.48 1016.25
995.65 995.26 995.17 995.54 995.22 994.46 994.35 994.33 993.78 994.58 993.73 994.33 996.21 998.14 999.72 1001.02 1002.46 1003.79 1005.07 1006.49 1007.74 1008.53 1009.44 1010.40 1011.54 1012.51 1013.28 1013.89 1014.28 1014.77 1015.06 1015.20 1015.17 1015.24 1015.01 1014.75 1014.47 1014.36 1014.90 1015.57 1015.72 1015.57 1015.90 1016.28 1016.34 1016.66 1016.75 1016.80 1016.75
994.76 994.52 994.22 994.26 993.93 993.66 994.46 993.71 993.39 994.81 993.24 993.58 994.54 996.69 998.61 1000.03 1001.39 1002.75 1004.08 1005.70 1006.99 1007.86 1008.79 1009.63 1010.59 1011.69 1012.51 1013.10 1013.66 1014.20 1014.70 1014.92 1015.02 1014.99 1014.81 1014.62 1014.38 1014.30 1014.81 1015.34 1015.23 1015.83 1016.08 1016.42 1016.49 1016.39 1016.64 1017.16 1016.99
994.04 993.76 994.15 993.72 994.29 994.67 996.45 993.78 992.70 992.76 992.85 992.98 993.68 995.32 997.37 999.08 1000.31 1001.86 1003.14 1004.68 1005.99 1007.01 1007.94 1008.83 1009.73 1010.90 1011.71 1012.35 1012.99 1013.62 1014.16 1014.54 1014.15 1014.34 1014.65 1014.66 1014.81 1014.65 1014.82 1015.18 1015.27 1015.81 1016.20 1016.40 1016.67 1016.53 1016.91 1017.19 1017.25
993.32 993.93 993.99 993.60 993.47 995.29 995.20 993.82 991.60 991.69 991.85 992.30 993.19 994.35 996.55 998.44 999.70 1001.12 1002.37 1003.76 1005.02 1006.16 1007.19 1008.17 1009.01 1010.00 1010.88 1011.56 1012.23 1012.92 1013.54 1013.94 1014.18 1014.20 1014.32 1014.35 1014.38 1014.60 1014.92 1015.03 1015.57 1016.01 1016.39 1016.63 1016.80 1016.85 1017.17 1017.29 1017.24
993.18 992.62 993.17 993.34 993.13 993.82 994.92 994.31 990.65 991.09 991.24 991.95 992.89 994.13 996.16 997.83 998.97 1000.38 1001.61 1002.96 1004.28 1005.27 1006.24 1007.25 1008.15 1009.09 1010.05 1010.76 1011.40 1012.10 1012.76 1013.24 1013.63 1013.77 1014.01 1014.16 1014.38 1014.57 1014.81 1015.00 1015.55 1016.14 1016.46 1016.77 1016.92 1017.03 1017.02 1017.16 1017.50
992.52 992.36 992.47 992.38 992.72 992.58 993.20 992.10 990.05 990.16 991.11 991.97 992.80 994.25 996.02 997.52 998.57 999.88 1000.97 1002.19 1003.54 1004.40 1005.33 1006.35 1007.30 1008.17 1009.15 1010.02 1010.71 1011.45 1012.06 1012.48 1012.74 1013.18 1013.40 1013.63 1013.93 1014.22 1014.49 1015.03 1015.50 1016.02 1016.44 1016.68 1016.78 1016.68 1016.85 1016.91 1017.19
Wind_Speed
13 14 12 5 3 5 10 9 15 16 11 7 2 3 13 11 7 9 16 14 14 15 12 11 8 10 10 11 11 10 9 8 9 8 9 10 10 11 10 12 11 11 11 9 10 9 9 9 8
16 10 6 7 3 1 8 15 12 9 15 12 11 11 4 12 4 17 15 15 9 10 13 12 9 10 9 10 10 9 10 8 9 10 10 10 11 11 10 10 11 10 10 8 8 7 6 6 5
16 12 8 5 1 6 9 19 12 18 20 11 6 6 8 4 12 9 19 10 13 10 13 11 9 10 11 11 10 10 10 10 11 10 9 10 10 9 8 10 9 8 7 6 5 5 3 3 3
8 9 6 1 14 20 12 15 17 17 12 6 13 13 8 10 4 7 16 15 12 11 14 10 10 11 10 10 8 10 10 10 10 10 10 10 10 8 7 7 7 6 5 4 3 2 2 2 1
12 1 4 6 11 14 12 18 12 8 14 9 11 8 7 7 6 12 11 14 15 12 15 12 10 12 9 9 8 9 9 8 9 10 9 8 7 5 5 5 4 3 3 0 2 2 4 4 4
10 5 2 3 14 11 9 10 6 11 15 19 12 12 6 6 15 14 12 11 13 15 10 13 11 10 9 8 8 9 9 10 9 8 7 6 5 3 3 2 1 0 1 2 3 4 5 6 6
17 3 2 15 8 13 11 8 9 7 9 9 23 11 8 13 10 10 4 4 8 14 7 11 11 10 8 7 9 9 9 8 7 6 4 3 5 5 4 4 3 2 3 3 3 5 5 6 6
10 9 8 8 11 6 12 12 18 5 9 12 11 9 13 16 18 19 11 8 4 12 6 8 11 11 12 11 7 8 7 6 6 5 4 8 9 10 10 7 4 3 3 3 4 5 7 8 10
16 9 2 3 20 7 11 13 7 9 11 6 5 7 23 24 19 17 13 14 6 6 13 9 11 6 4 11 8 9 8 9 9 8 10 8 7 9 10 9 3 1 3 3 4 4 7 11 13
13 7 8 5 7 11 7 11 10 11 10 8 10 22 26 26 21 17 12 15 13 13 11 14 11 10 8 9 6 5 7 4 2 6 5 2 5 4 7 3 7 7 8 7 8 11 13 13 9
6 6 4 7 12 6 13 9 7 13 12 12 17 23 25 22 19 16 18 17 12 12 9 10 9 9 9 8 6 4 1 3 6 5 5 4 4 5 4 2 3 1 9 6 8 7 5 9 6
12 6 8 14 7 6 7 11 7 8 14 13 17 22 21 23 18 19 16 15 14 12 11 10 9 5 8 5 6 4 3 4 1 5 4 3 2 5 5 6 4 2 4 4 3 3 4 5 1
6 7 11 11 3 14 6 7 9 11 7 13 16 22 23 22 18 15 11 12 13 11 11 11 10 7 6 4 5 3 2 0 3 4 6 7 6 4 3 2 3 2 3 5 2 2 4 6 2
2 6 8 6 9 6 5 10 10 10 9 16 16 21 22 22 20 16 14 9 9 12 11 12 11 9 8 3 4 3 2 5 1 6 7 7 3 5 6 3 5 7 7 6 7 3 4 6 5
5 10 8 9 10 12 8 9 8 11 12 15 16 19 20 19 23 19 18 16 13 12 12 13 12 11 8 7 6 4 6 3 3 6 5 5 7 2 7 3 8 5 3 3 3 4 2 4 4
15 17 16 12 12 8 10 9 14 13 15 15 15 18 19 16 19 16 18 18 13 10 12 13 11 11 9 7 4 4 5 2 2 3 8 4 5 4 8 3 7 7 7 6 5 6 6 5 7
15 15 23 22 12 11 7 16 16 13 13 17 16 18 19 16 16 15 17 15 16 14 13 13 9 11 9 8 7 4 5 5 3 1 5 3 5 6 8 5 7 6 3 6 7 7 6 6 5
17 13 16 5 14 6 9 9 17 15 15 16 18 18 20 20 19 14 19 17 18 14 13 13 10 9 9 8 4 6 6 4 3 2 7 3 4 5 7 2 3 5 4 6 7 6 5 6 7
12 18 15 11 12 4 10 6 20 18 17 18 18 20 19 18 19 16 17 16 17 15 15 14 12 10 8 6 7 6 7 5 3 2 3 2 3 5 4 7 4 5 3 5 6 8 6 7 8
29 27 8 6 8 5 14 12 14 22 20 21 20 21 23 22 18 16 17 18 18 17 16 15 14 11 9 7 5 3 3 2 2 3 2 0 1 3 5 5 6 6 6 3 6 6 6 2 3
19 16 11 12 5 11 14 14 15 23 20 19 21 23 22 23 23 20 18 20 19 18 18 16 14 13 11 9 6 4 2 3 5 5 7 5 1 3 3 4 5 5 7 7 5 7 8 8 4
23 17 14 10 9 12 4 13 17 19 20 21 21 22 23 24 24 24 23 21 21 19 18 17 15 13 12 11 7 8 6 6 3 2 5 1 2 4 2 3 3 3 7 4 6 7 6 5 8
20 20 16 13 15 16 20 9 7 19 20 22 21 22 22 23 23 26 25 24 22 20 18 18 15 14 12 12 10 8 8 5 4 5 5 3 3 4 4 3 4 3 6 4 4 5 6 7 6
21 21 10 12 14 15 18 14 13 19 19 21 22 22 22 23 23 22 23 22 21 19 19 18 16 13 14 12 13 10 7 8 5 5 4 5 3 4 5 2 2 3 4 4 3 3 5 6 5
26 22 11 13 13 14 10 16 3 26 7 19 24 24 23 22 22 23 23 21 21 22 20 18 17 16 16 16 14 13 12 9 8 6 6 5 4 4 6 1 4 3 3 2 2 2 3 5 6
24 25 13 19 16 14 14 9 7 36 7 13 20 23 24 23 22 23 25 23 22 22 22 20 19 16 17 17 15 12 12 9 9 8 8 6 5 4 5 3 3 2 1 3 2 3 3 4 4
26 27 22 25 8 11 4 20 14 10 13 5 13 25 24 23 23 23 24 23 23 22 22 21 18 17 17 17 13 13 12 12 10 9 8 8 6 7 5 5 2 2 3 3 2 3 1 3 3
31 20 23 18 18 2 12 16 12 16 10 10 10 23 24 23 22 22 21 22 21 21 21 21 20 18 17 17 14 13 13 13 11 9 9 8 7 4 5 5 5 5 5 4 4 4 4 1 3
22 24 22 22 19 8 13 24 17 13 9 2 12 20 23 22 22 21 21 21 21 21 21 20 19 19 17 15 14 13 14 13 13 12 11 11 9 8 7 4 6 5 6 5 2 1 2 2 2
27 28 26 17 23 14 7 12 20 13 9 6 14 19 21 21 21 20 20 21 20 20 20 20 19 18 16 14 13 14 14 14 14 12 12 11 10 9 9 5 7 7 6 5 4 4 2 2 1
Wind_Direction
174 191 218 225 231 203 103 86 115 139 110 105 186 120 92 37 7 85 141 120 129 118 121 125 109 102 100 106 99 96 100 91 99 92 105 95 89 89 84 92 92 89 85 87 88 93 98 97 100
193 197 237 257 113 329 81 126 112 114 118 140 98 99 67 72 100 128 129 101 150 118 120 113 111 109 107 100 99 95 81 93 96 92 96 98 96 91 91 83 84 76 81 82 85 86 83 85 88
275 231 261 105 150 17 88 121 143 128 137 128 110 108 37 116 95 115 107 133 141 143 117 107 115 103 99 98 99 93 92 92 88 91 93 88 86 87 87 91 91 86 81 80 79 79 71 68 56
217 218 242 16 68 83 118 111 136 125 117 99 108 87 91 66 48 114 135 162 130 94 101 115 107 106 98 105 105 104 98 99 100 99 101 101 89 96 91 90 87 83 75 61 69 40 29 25 11
239 140 291 109 99 80 100 114 129 110 127 140 105 102 92 85 125 130 172 136 137 168 109 116 102 102 105 101 104 106 103 94 104 101 99 100 105 100 97 93 100 109 107 89 332 333 330 332 324
275 31 262 184 94 104 98 110 94 125 139 127 110 117 103 143 159 168 139 152 141 102 129 126 111 113 115 109 111 112 101 96 97 99 101 102 110 146 135 115 131 265 307 316 312 313 317 314 310
258 335 275 146 100 123 109 128 108 117 144 133 152 110 130 169 168 153 122 48 115 124 160 127 133 123 120 123 110 99 99 102 105 99 113 171 190 196 193 186 215 287 297 295 297 298 292 284 292
289 306 352 89 115 284 116 113 127 59 117 123 140 140 167 148 189 139 169 133 97 141 114 148 145 158 150 138 114 112 120 122 124 149 207 222 223 215 202 187 204 289 319 290 281 286 286 280 273
265 300 326 358 91 266 122 113 69 120 125 146 99 178 143 157 158 159 177 145 179 207 157 118 142 163 125 126 131 150 172 181 183 186 222 242 231 217 142 92 120 228 289 278 241 257 265 254 249
254 299 44 3 81 102 120 109 122 145 125 135 119 107 140 160 155 152 172 144 202 154 168 164 134 140 178 123 165 149 152 187 164 48 329 300 29 34 339 73 190 197 219 226 225 216 237 260 248
242 24 37 87 43 109 116 115 148 132 174 149 133 143 149 144 171 154 188 163 162 162 170 126 134 176 168 113 171 146 98 143 128 82 359 59 335 110 213 9 172 140 224 167 202 242 208 35 343
270 85 68 75 104 107 143 108 146 110 69 137 139 153 156 156 182 170 176 169 155 165 143 158 131 155 97 157 201 139 128 138 122 90 2 320 207 32 2 27 342 299 28 59 350 333 359 317 63
222 85 102 105 87 73 148 124 94 97 118 129 145 158 163 169 167 174 157 183 162 159 138 131 137 141 135 239 89 9 149 310 125 130 67 28 32 347 46 22 45 344 345 41 89 271 31 308 267
301 153 107 153 117 155 130 120 188 132 158 138 162 169 172 170 162 179 190 160 186 166 159 137 148 154 148 127 164 186 5 155 117 73 46 59 339 342 343 27 33 50 40 31 25 343 334 292 353
122 179 183 174 155 156 243 160 119 142 155 147 171 174 180 168 174 173 186 169 194 164 165 147 160 164 146 130 169 228 175 154 93 100 86 56 12 353 304 32 39 355 87 68 80 313 330 1 342
252 226 198 154 163 130 213 237 125 145 152 161 177 175 178 173 170 188 166 180 155 205 162 162 178 152 164 142 170 210 114 130 121 88 113 43 37 21 304 50 44 3 316 357 31 2 352 35 342
209 238 115 255 170 127 241 203 130 155 163 162 178 185 176 192 176 187 162 184 166 193 164 177 179 163 155 156 179 197 112 253 111 237 91 51 66 25 319 31 58 326 358 49 8 355 11 343 345
250 214 226 189 163 189 208 156 146 167 170 175 178 197 186 183 183 184 179 177 183 164 183 187 177 168 165 154 202 195 167 203 197 142 65 36 51 28 329 110 61 297 350 26 1 332 333 298 19
15 278 287 177 149 200 242 258 157 170 185 179 187 189 197 199 182 184 197 185 178 181 177 187 184 176 179 189 198 196 205 196 190 162 115 232 39 31 349 354 55 336 12 12 347 342 17 342 17
159 254 273 277 130 225 267 219 181 170 194 183 187 191 195 196 188 196 190 192 190 183 183 185 190 179 202 196 225 235 237 164 356 31 70 225 13 351 329 341 332 21 346 27 2 10 348 359 62
241 251 232 235 152 229 255 261 243 166 188 199 186 185 197 200 185 190 194 195 193 188 188 186 193 186 198 222 189 170 232 258 215 183 201 149 177 332 360 355 0 340 282 28 333 24 5 340 355
241 222 265 287 267 269 183 267 235 172 187 196 191 188 190 198 186 189 194 195 195 196 189 190 191 197 196 204 201 202 222 230 152 180 89 228 235 322 304 353 349 343 318 13 350 35 340 345 348
238 246 222 236 256 254 206 238 249 167 187 193 198 192 193 192 195 188 193 191 198 194 192 193 187 196 209 193 234 194 233 220 216 222 122 225 235 230 288 329 321 330 304 8 20 12 359 342 338
229 241 229 240 248 251 248 258 239 181 183 193 191 192 193 188 195 196 187 188 196 197 194 190 186 196 200 205 200 231 224 234 264 192 239 244 246 203 149 308 288 309 326 19 43 11 40 2 8
228 225 217 226 229 245 274 211 187 341 146 177 182 190 188 187 189 190 185 189 192 197 195 192 186 194 204 206 211 205 217 225 237 243 233 274 285 254 124 100 248 278 53 42 49 46 33 28 13
221 227 222 218 230 231 169 239 239 196 139 151 173 180 182 188 186 187 185 187 189 193 193 195 186 194 203 207 207 206 206 217 219 226 254 246 256 261 115 237 252 105 56 127 160 170 4 29 30
214 225 229 249 275 265 73 265 212 165 199 172 185 167 180 185 182 185 187 185 187 191 192 194 189 193 202 205 202 201 205 222 222 240 194 223 236 260 219 235 213 157 145 183 178 59 19 341 355
236 203 224 240 244 227 291 295 207 189 205 173 212 167 173 179 181 181 186 183 187 189 189 194 193 192 199 202 199 199 203 208 222 235 228 247 263 250 272 260 130 209 147 179 240 183 121 35 5
215 224 217 237 239 183 222 241 174 166 184 78 186 164 168 177 181 178 184 180 188 186 189 192 194 191 197 200 195 198 201 204 211 220 226 230 232 232 229 229 158 175 180 187 199 61 130 109 100
216 218 227 224 236 251 275 294 225 143 139 166 174 156 167 178 180 175 182 177 184 188 189 190 193 193 192 193 197 193 201 205 208 214 223 223 221 218 220 170 196 187 188 187 206 231 92 183 174